GFSSGP_925_thetae_198.txt.gz
Theta_e
323 329 329 328 334 332 325 328 327 329 330 327 328 327 330 333 339 347 339 342 341 340 338 333 326 332 336 337 336 336 335 334 332 334 334 334 333 332 331 328 328 328 329 328 328 327 327 327 327
324 327 329 332 334 334 324 324 326 328 328 327 328 328 329 334 335 337 341 341 340 339 338 332 327 327 335 336 337 336 333 331 334 334 334 332 332 332 330 329 327 327 328 329 330 328 326 326 325
324 329 331 335 335 333 324 324 325 327 328 329 330 329 329 333 334 338 341 341 339 338 336 334 328 324 333 335 335 332 330 329 328 330 332 329 329 330 330 328 326 328 327 328 332 328 325 323 323
324 332 330 332 334 330 323 322 324 327 327 326 326 328 331 332 334 339 341 340 338 337 337 332 324 319 327 331 331 332 332 331 330 328 329 328 328 327 328 327 327 326 327 326 328 327 321 319 319
326 331 337 335 333 329 326 323 324 326 325 323 323 325 333 334 336 340 341 340 338 337 338 332 327 323 321 328 331 333 335 332 330 330 328 328 327 327 326 326 326 326 326 326 326 325 323 321 320
329 331 337 337 332 328 326 325 325 325 325 324 324 327 334 334 336 339 341 340 338 338 338 332 329 324 322 325 330 331 330 333 332 331 330 328 327 326 326 326 325 325 326 325 325 325 321 321 322
330 333 335 336 333 329 327 326 327 327 327 328 325 324 331 333 336 338 340 340 339 338 337 336 331 327 325 322 325 329 330 333 335 332 329 327 326 325 325 326 326 325 325 325 325 326 325 321 321
329 331 333 335 333 332 326 326 327 328 330 328 328 326 329 333 336 337 337 339 340 339 337 336 335 330 327 325 324 326 330 331 331 332 331 328 327 327 326 325 325 325 324 325 324 325 324 323 320
328 332 333 334 334 330 326 327 327 326 328 330 330 331 331 335 336 337 337 337 337 339 338 336 335 334 333 330 325 325 326 328 329 328 329 329 328 327 326 326 326 326 325 324 324 324 324 323 320
325 329 330 329 332 330 326 327 327 328 329 330 333 331 335 336 336 336 337 337 337 337 337 335 335 335 335 333 332 327 325 325 326 328 326 328 327 327 329 328 328 326 326 325 324 324 323 322 320
321 325 323 328 330 329 327 327 326 328 330 329 332 332 333 336 336 335 335 336 336 334 334 335 336 336 335 334 333 332 330 328 326 326 327 329 327 327 327 327 327 327 326 325 324 324 324 323 324
322 321 322 328 326 328 330 328 328 327 328 326 327 332 333 334 334 335 334 335 336 335 335 335 336 335 335 334 334 333 332 331 329 329 329 328 328 328 328 328 326 327 327 326 325 326 327 326 326
322 320 321 325 325 326 325 328 327 327 325 326 326 332 332 332 333 333 333 333 334 334 335 335 333 335 334 335 334 333 333 332 332 331 330 330 329 328 328 328 327 327 327 327 327 326 326 326 326
321 319 321 323 324 325 326 327 326 327 326 325 328 327 330 330 332 333 333 333 333 333 333 334 334 334 332 334 334 334 333 333 332 332 331 331 330 330 329 328 328 327 326 326 326 326 326 326 325
322 322 321 321 321 323 323 324 325 323 324 327 326 325 328 328 331 331 333 333 333 333 333 334 334 334 334 331 331 333 334 333 333 332 332 332 332 331 330 329 329 328 327 326 326 326 325 325 324
322 321 323 321 319 322 321 317 318 321 321 321 321 323 325 327 329 331 331 332 332 333 333 334 334 334 334 334 333 330 331 333 333 333 332 332 332 332 331 330 330 329 329 328 327 326 326 325 325
322 320 320 321 321 321 321 319 316 320 319 318 317 316 317 322 324 326 327 329 331 332 332 332 332 333 334 335 335 334 334 330 332 334 333 333 332 332 332 331 330 330 330 329 329 328 327 326 326
317 318 315 317 321 321 322 322 319 320 320 319 318 317 317 317 316 319 319 320 322 323 325 326 328 331 331 331 334 335 335 334 333 332 333 333 333 333 332 332 331 331 330 329 329 328 328 327 327
315 315 315 316 319 319 319 318 317 317 316 316 316 317 316 316 317 319 319 319 318 319 319 319 320 321 325 330 331 332 333 334 334 334 333 332 333 333 332 332 332 331 330 329 328 328 328 327 327
316 315 314 316 318 317 316 315 312 312 313 313 313 313 313 312 312 313 314 316 318 318 319 319 319 320 321 325 328 329 331 332 332 333 332 330 331 333 332 332 330 330 330 329 328 328 328 328 327
317 316 314 314 317 316 317 315 315 313 312 312 312 312 312 311 310 310 313 315 316 316 316 317 318 319 320 321 324 327 328 329 330 331 331 331 331 329 332 331 330 328 328 328 327 327 327 327 326
319 315 315 317 316 312 314 312 311 310 310 311 310 310 309 309 311 311 312 313 314 314 315 316 317 318 318 319 321 324 326 327 328 329 329 331 332 331 330 329 329 327 326 326 326 325 325 325 325
314 314 315 314 313 313 311 310 309 311 310 310 310 310 310 311 312 311 310 311 311 311 312 312 314 314 314 315 317 321 324 326 327 328 328 329 329 329 329 329 329 327 326 325 325 325 324 324 324
314 313 313 314 313 313 312 309 308 309 310 311 313 311 311 311 311 310 309 310 311 312 313 314 315 316 315 314 314 318 322 324 325 326 326 326 325 326 326 327 326 325 325 325 325 324 324 324 324
315 315 318 319 318 313 311 309 309 309 311 311 313 311 311 311 310 310 310 311 312 311 310 310 311 311 316 320 320 320 322 323 324 324 320 322 321 320 321 322 323 322 321 320 321 321 321 321 322
315 314 318 314 318 314 313 312 310 311 310 310 311 311 310 310 310 311 310 310 309 308 308 307 306 306 308 310 313 316 316 316 313 314 312 310 310 311 311 310 309 309 311 312 314 316 319 319 319
315 315 313 313 308 311 311 311 310 311 311 311 311 310 310 311 310 310 309 308 307 306 305 305 304 304 304 305 306 307 307 308 307 307 307 307 307 306 305 305 306 306 307 308 309 310 311 313 317
314 313 315 314 313 313 307 307 309 310 310 310 310 309 310 310 311 311 308 307 306 304 303 303 303 303 303 303 303 303 303 303 303 304 303 303 303 303 302 303 303 303 304 305 306 307 309 311 312
315 316 314 314 313 315 313 309 308 309 309 310 310 311 310 309 308 308 309 307 305 304 303 303 302 302 302 302 302 302 302 302 302 302 301 301 301 301 301 301 301 301 302 302 303 304 304 305 305
312 313 313 313 314 311 313 311 311 309 309 309 309 310 310 309 307 308 309 307 305 304 302 302 301 301 301 300 300 300 300 300 300 300 300 300 300 300 300 300 300 300 300 300 300 300 300 300 301

GFSSGP_925_thetae_201.txt.gz
Theta_e
323 324 328 326 327 319 323 326 325 328 326 325 325 326 333 334 341 343 341 341 340 335 328 323 330 335 335 336 335 330 327 330 334 334 334 333 332 330 329 326 328 328 328 328 327 327 327 327 324
322 323 328 323 328 323 320 322 325 326 325 324 326 326 329 336 334 341 341 341 339 335 329 323 329 334 336 336 335 334 332 332 334 334 332 332 332 331 328 327 326 328 332 331 328 326 326 323 321
321 324 324 327 327 328 320 323 324 325 324 326 327 325 330 333 335 339 341 340 338 336 330 323 324 333 336 336 335 330 328 327 326 333 332 330 331 330 328 326 327 326 328 332 329 326 323 322 321
320 324 325 326 329 326 319 322 323 325 324 323 324 331 329 333 338 341 340 339 336 336 331 324 320 328 333 334 332 330 331 329 328 327 330 328 329 330 327 327 326 325 326 328 329 324 321 318 318
321 323 331 329 329 326 320 321 323 324 323 322 321 330 333 337 339 341 339 338 337 335 336 326 321 324 330 331 331 333 331 330 329 328 326 326 327 326 326 326 325 326 326 326 326 323 319 318 317
320 323 331 332 328 325 324 320 321 321 320 321 327 331 333 338 340 340 339 337 336 337 336 328 323 320 325 330 330 333 332 332 330 329 328 327 325 326 325 324 325 325 325 325 325 324 320 319 319
326 327 331 331 327 326 325 324 322 323 321 325 320 331 331 334 340 340 339 338 337 338 336 329 326 323 321 324 328 329 330 332 331 330 329 327 326 326 326 326 325 324 325 324 324 325 324 321 319
323 326 329 330 327 328 323 325 325 325 329 326 325 328 332 331 338 340 339 338 338 337 337 333 329 326 324 322 325 328 328 332 333 332 329 327 326 325 325 326 326 325 324 324 323 324 324 324 321
323 326 328 330 329 326 322 326 326 325 327 328 329 328 326 336 337 338 338 339 338 338 336 336 333 330 326 324 323 325 328 330 330 331 331 327 326 326 326 325 325 324 324 323 324 324 324 324 322
321 322 326 328 328 324 322 324 325 326 328 330 331 333 335 335 336 336 336 336 338 338 337 336 334 334 332 328 325 323 323 326 328 328 327 329 328 327 327 327 327 326 325 325 324 324 324 323 322
319 320 320 326 328 325 324 323 324 325 328 328 332 333 334 335 335 335 336 336 337 338 337 336 334 334 334 333 332 329 324 323 323 325 326 325 327 326 326 328 327 327 327 326 324 323 323 323 323
321 319 321 325 324 325 326 324 325 324 327 325 328 332 334 334 334 334 335 336 336 336 337 335 334 334 335 334 333 332 331 327 326 323 324 325 327 327 327 327 327 326 325 326 324 325 324 325 326
321 319 320 323 323 323 324 325 325 325 323 326 329 331 333 333 334 334 333 335 335 335 333 333 334 335 335 335 334 333 332 332 330 329 328 328 327 328 328 327 327 327 326 327 326 326 326 326 326
320 320 320 322 321 324 325 324 324 325 322 324 330 330 330 331 332 333 333 333 333 334 333 333 332 336 335 334 334 333 333 333 332 331 330 330 330 328 327 327 327 327 326 326 327 326 326 326 325
321 320 320 320 320 322 321 319 324 322 321 323 325 324 327 328 331 331 332 332 333 333 333 333 334 333 333 334 334 334 334 333 333 332 332 331 331 331 330 329 329 328 327 327 326 326 326 325 325
320 320 321 319 319 321 315 313 315 315 320 320 321 321 322 324 327 331 332 332 332 332 333 333 333 333 333 332 331 333 333 334 333 333 332 332 331 331 331 330 330 329 328 328 327 327 326 326 325
320 319 319 319 318 321 317 316 315 317 316 316 315 314 315 319 324 328 330 332 332 333 333 333 333 334 334 334 334 333 331 331 333 333 333 332 332 331 331 331 331 330 329 329 329 328 328 327 326
319 320 314 316 319 320 321 320 318 317 318 316 315 315 314 315 313 321 325 327 329 331 332 332 333 334 334 334 334 334 334 334 333 331 332 333 333 332 332 331 331 331 330 330 329 328 328 327 327
313 314 314 318 318 318 318 317 315 314 314 315 315 314 315 314 315 317 318 318 318 320 322 323 328 331 333 334 334 334 334 334 334 333 333 331 333 333 332 332 332 331 331 330 329 328 328 328 328
316 315 313 317 316 315 314 313 311 310 310 310 310 310 309 310 309 311 313 314 314 317 318 319 319 319 320 330 331 330 331 333 333 333 333 333 332 332 332 332 331 331 330 330 329 329 329 328 328
316 315 313 313 316 315 315 312 312 311 310 309 309 309 309 309 308 308 310 313 314 315 315 316 317 318 319 320 325 329 330 330 330 331 332 332 332 330 330 331 330 330 330 329 328 328 328 327 327
318 315 315 316 313 312 311 309 309 307 308 309 309 308 307 308 309 309 308 311 311 312 313 314 315 316 317 319 320 322 326 327 328 329 330 330 330 330 331 329 331 329 328 327 326 326 326 326 325
315 313 314 314 313 312 310 309 307 306 307 305 308 307 307 308 310 309 308 309 310 311 311 312 312 314 314 316 317 322 325 326 326 326 327 328 330 331 330 329 329 328 327 325 324 324 324 324 324
312 312 314 314 311 307 309 305 303 306 307 311 311 309 309 308 308 308 309 310 312 312 312 313 314 315 314 314 314 315 319 322 325 325 327 327 326 326 328 328 327 326 325 325 324 324 324 323 323
313 313 314 313 308 303 307 307 304 307 309 309 310 309 309 309 307 307 308 310 310 310 309 309 311 312 316 318 316 316 319 322 323 323 324 324 324 323 323 324 324 323 322 321 320 320 319 319 319
314 312 312 303 314 312 310 310 308 308 308 308 308 309 309 308 308 308 308 308 308 308 307 306 307 308 310 313 316 316 317 319 319 318 316 317 317 316 315 315 314 313 312 312 313 313 313 314 315
314 315 312 311 303 307 307 309 308 309 310 309 308 308 309 308 308 307 307 307 306 305 305 305 305 305 306 307 308 310 311 312 313 312 311 310 309 308 306 306 306 306 306 307 307 308 309 310 311
313 312 315 311 310 311 307 306 305 309 309 308 308 308 308 308 309 308 306 306 305 304 304 304 304 303 303 304 304 304 305 306 306 306 305 305 304 303 303 303 303 303 303 304 304 305 305 305 306
314 315 314 312 311 314 311 306 305 306 308 308 308 309 307 307 306 308 307 307 306 305 303 303 303 303 302 302 302 302 302 302 303 302 302 302 302 302 302 301 301 301 301 301 301 302 302 302 301
312 313 312 312 313 310 311 309 308 306 307 307 308 308 307 306 305 304 308 306 305 304 303 303 302 302 302 302 302 301 301 301 301 301 301 301 300 300 300 300 300 300 300 299 299 299 298 298 299

GFSSGP_925_thetae_207.txt.gz
Theta_e
317 321 326 323 326 316 322 325 323 326 326 323 323 328 331 334 337 338 337 339 337 327 322 331 330 335 334 335 332 332 332 334 334 333 332 331 331 329 328 328 328 327 327 327 327 327 325 325 325
317 321 325 319 325 319 320 318 326 325 324 328 327 328 332 337 339 339 339 339 334 322 322 328 331 335 331 333 331 330 327 331 333 333 332 330 329 328 329 329 329 330 328 326 326 326 321 321 323
319 324 323 324 319 319 319 322 323 324 322 323 327 326 330 334 338 338 340 338 330 321 321 328 334 336 333 329 326 326 328 331 333 332 331 330 329 328 327 328 331 332 330 326 326 325 320 320 322
319 323 320 323 323 322 318 322 322 322 320 323 326 331 330 333 339 340 339 336 327 322 321 330 335 335 334 332 331 328 327 330 332 331 331 330 329 328 326 326 325 329 330 327 326 321 318 318 320
321 320 328 326 326 321 318 321 320 322 320 321 326 332 335 336 338 340 338 334 326 323 321 328 333 334 335 334 330 327 327 326 326 329 329 329 329 328 327 325 325 323 327 327 326 318 316 314 316
319 320 328 331 326 322 321 320 319 320 319 325 328 331 334 336 340 339 337 334 329 323 321 326 332 334 335 334 330 329 330 329 328 325 326 326 327 326 325 325 325 328 325 326 323 321 318 317 316
322 324 328 328 326 323 321 316 319 318 320 322 326 331 331 337 339 339 337 336 332 325 322 321 326 333 334 333 330 330 330 329 328 327 326 325 325 324 323 324 324 325 325 326 326 323 322 320 318
320 323 328 326 324 324 321 318 318 317 320 320 325 330 334 334 338 338 337 336 333 329 325 322 322 329 331 332 330 331 330 330 330 329 327 327 325 325 324 324 324 323 323 324 323 322 321 322 320
319 323 327 327 324 325 320 324 323 323 325 329 328 326 325 338 338 336 335 335 334 334 332 326 322 320 324 327 328 329 332 331 330 330 329 328 326 325 325 324 324 324 324 324 323 322 322 322 322
317 318 323 325 327 326 321 323 323 327 329 330 332 330 331 337 336 335 334 334 335 335 334 331 326 323 321 322 325 327 327 327 330 331 330 329 327 325 325 324 324 324 324 323 323 323 323 323 322
317 318 318 323 324 324 321 323 322 325 328 327 330 331 333 335 335 335 335 335 335 336 335 334 330 327 324 323 322 324 324 325 327 331 331 330 328 326 325 325 325 326 326 325 325 324 324 323 322
318 317 317 322 322 323 323 322 324 324 324 323 326 331 333 333 335 334 335 335 335 336 335 336 335 332 330 327 325 323 323 323 324 325 326 326 326 326 326 326 324 325 326 326 326 325 324 324 323
317 317 319 321 320 322 322 323 323 322 322 324 330 332 332 333 334 334 334 336 336 336 336 336 336 335 334 332 331 328 327 324 323 322 322 323 323 323 323 323 325 325 326 326 326 325 324 325 325
317 319 318 320 319 321 324 323 323 323 325 327 332 332 331 331 332 333 333 335 336 336 337 336 336 335 334 333 332 333 332 331 330 329 327 325 324 323 323 324 325 326 326 326 326 326 325 325 326
319 319 318 318 318 320 318 316 324 320 322 328 330 330 330 331 332 333 334 334 335 337 337 337 336 336 334 333 332 333 333 332 331 331 330 330 329 328 328 328 328 327 327 326 326 327 326 326 326
319 316 319 317 317 319 312 312 310 313 317 324 326 325 327 328 330 332 332 333 334 335 335 335 336 336 335 334 333 333 334 334 333 332 332 332 331 331 330 330 330 329 329 329 328 328 327 327 326
316 319 319 318 316 319 315 315 311 313 313 317 318 319 319 320 323 329 331 330 329 329 330 332 334 334 333 331 332 332 334 334 333 333 332 332 332 332 331 330 330 330 330 330 329 329 328 328 328
319 316 316 317 317 319 318 315 314 314 315 315 313 310 309 310 311 318 325 328 330 331 331 331 331 332 332 332 332 332 333 333 333 333 332 332 332 332 331 331 331 331 331 330 330 329 329 329 329
315 314 314 313 316 318 318 318 316 314 311 311 310 310 311 310 311 314 314 315 318 324 329 329 330 331 332 332 332 332 332 332 332 332 331 331 330 330 331 332 332 331 330 330 330 330 330 330 329
313 312 312 316 316 314 312 313 311 310 309 309 308 308 310 312 311 311 311 310 311 312 312 317 325 329 330 331 332 332 332 332 332 332 332 332 332 331 332 331 331 332 331 329 329 330 330 330 329
316 314 312 313 314 312 310 307 307 307 308 307 307 305 306 308 309 307 308 310 310 311 312 313 314 315 320 328 331 331 331 332 332 332 331 328 329 331 332 332 332 331 330 330 329 330 330 329 328
315 313 313 314 312 312 307 305 305 305 304 304 303 304 304 304 305 306 307 308 309 310 311 311 313 314 315 316 320 329 331 331 331 331 330 329 329 328 329 331 332 330 328 329 329 329 329 327 325
315 313 313 312 311 311 310 309 306 304 305 303 303 304 301 303 303 305 307 308 310 310 310 311 311 312 313 314 315 317 322 325 327 327 326 328 327 328 329 329 330 328 328 328 328 328 326 324 323
311 312 313 311 307 308 309 309 302 302 305 307 309 308 306 305 305 305 308 309 310 309 309 310 312 312 312 313 313 314 316 317 319 321 324 325 325 325 326 328 329 329 327 324 325 325 324 323 322
312 313 313 316 312 311 303 305 304 302 302 305 308 307 306 305 305 306 308 308 309 308 308 308 309 310 312 314 314 314 313 314 318 322 324 324 325 327 328 328 327 325 323 322 322 321 321 320 319
312 311 311 309 306 305 305 308 306 305 305 304 308 306 306 306 305 306 308 308 307 307 307 306 306 307 309 312 314 314 315 315 316 320 323 324 324 323 321 322 322 321 320 321 319 318 315 313 313
313 312 307 308 300 307 306 305 305 305 308 306 306 307 308 306 306 307 307 307 306 306 305 305 305 305 306 308 310 312 313 315 316 317 319 320 319 317 316 314 314 313 312 309 307 306 306 307 306
311 310 313 309 305 308 304 305 305 307 309 307 307 307 308 307 307 306 305 306 306 305 305 304 304 304 304 304 305 306 309 311 312 312 312 312 312 311 309 307 305 304 304 304 304 304 303 303 303
313 313 311 310 308 308 305 304 300 302 305 306 306 305 305 306 307 306 306 306 305 305 305 304 304 303 303 303 303 303 304 305 305 306 306 305 305 303 303 302 302 302 302 301 301 301 300 300 300
311 312 311 309 309 308 309 307 304 304 302 304 304 305 304 304 303 303 306 306 306 305 305 305 304 304 303 303 302 302 302 302 302 302 302 301 301 301 301 301 301 301 300 300 300 299 299 298 298

GFSSGP_925_thetae_210.txt.gz
Theta_e
316 323 327 322 325 317 323 324 322 326 326 322 325 327 331 333 337 337 337 338 335 331 330 330 336 336 336 334 333 334 333 334 333 333 331 331 329 327 327 327 327 327 327 327 327 327 328 327 325
317 322 323 318 325 320 321 317 326 324 325 326 325 327 331 336 339 337 338 338 333 324 329 327 336 333 334 330 330 330 331 333 333 332 331 330 329 330 330 330 329 328 326 326 327 327 325 324 324
319 323 322 322 317 323 318 319 323 323 326 323 329 326 329 333 337 337 339 338 330 321 325 325 335 331 332 327 327 327 326 330 333 332 330 330 328 328 328 330 329 329 327 326 326 324 321 321 323
319 322 318 323 327 321 317 320 321 321 319 323 327 332 329 333 337 338 339 338 326 319 323 327 335 332 329 327 326 326 328 329 331 331 331 330 329 328 326 327 329 329 328 326 325 319 318 319 321
321 319 327 325 324 321 315 320 319 321 319 322 325 331 335 336 338 339 338 335 323 321 323 329 334 335 333 329 329 328 325 329 329 330 330 329 329 328 325 327 324 325 327 326 321 316 314 314 317
320 319 328 330 325 321 320 320 319 319 318 325 328 333 334 336 339 339 338 333 323 321 325 333 335 335 334 332 331 326 327 326 324 325 326 326 327 327 326 325 325 326 323 326 322 320 318 316 315
321 323 327 327 326 323 322 316 318 317 321 323 325 331 330 335 338 338 337 331 325 323 324 330 333 334 334 334 330 327 329 329 329 326 325 325 324 323 325 324 324 325 326 326 325 322 321 321 320
319 322 327 325 324 322 319 317 317 317 319 321 324 325 329 333 338 337 335 331 327 324 323 326 331 334 334 334 331 328 330 329 329 327 326 326 325 324 323 322 322 323 323 322 323 323 322 320 321
317 323 327 326 323 323 317 323 320 321 322 326 326 324 324 336 337 336 335 333 331 327 323 322 325 330 333 333 331 329 330 330 329 329 328 327 326 325 324 323 323 323 323 323 323 323 322 322 322
316 318 323 322 323 326 320 322 322 326 328 329 331 328 332 336 335 333 333 333 333 331 327 324 321 321 327 328 328 328 330 331 330 330 330 329 327 325 324 324 323 323 324 324 323 323 323 323 323
316 316 317 323 324 324 323 322 321 324 328 324 328 329 332 334 334 333 333 333 332 332 332 331 326 322 320 321 324 325 326 327 327 329 330 330 329 327 325 324 324 324 324 325 324 325 324 324 324
318 316 316 321 322 322 320 320 323 323 324 322 324 329 334 334 334 333 333 334 334 333 334 334 332 327 325 322 321 321 323 324 324 324 328 329 328 327 326 325 324 325 324 324 325 325 325 324 323
315 316 317 320 320 321 321 322 322 322 321 323 327 332 334 334 334 334 334 335 335 334 335 335 334 332 330 328 326 324 323 322 322 323 323 324 324 324 324 323 323 322 324 324 325 325 325 325 324
314 317 317 319 318 319 323 323 322 322 325 328 330 330 331 332 334 334 334 335 335 335 335 335 335 335 334 333 332 330 329 327 326 325 324 323 323 323 322 322 323 323 324 325 326 326 325 325 325
317 319 317 318 318 318 316 317 324 319 325 328 330 329 329 329 332 333 334 334 335 335 336 336 336 335 335 334 333 332 331 331 331 330 330 329 328 327 327 327 327 327 327 327 327 326 326 326 326
317 315 318 316 317 317 312 314 311 312 319 326 326 326 328 328 330 332 333 334 335 335 335 336 336 336 336 335 334 333 332 332 332 332 331 331 330 330 330 330 330 330 329 329 328 329 328 328 328
315 318 318 318 316 318 313 312 311 313 313 317 320 322 323 324 325 330 332 332 332 333 333 334 335 335 336 336 335 334 333 332 332 333 333 332 331 331 331 331 331 330 330 330 329 329 329 329 328
319 318 316 318 316 318 317 315 313 314 315 315 312 311 310 312 314 319 321 327 329 330 329 329 330 332 334 334 334 333 333 332 332 333 332 332 332 332 331 331 331 331 330 330 328 329 329 329 330
314 314 314 313 315 318 317 316 315 313 313 311 311 310 310 310 310 312 313 314 319 325 328 329 330 331 331 331 331 331 331 331 331 332 332 332 332 331 331 331 331 331 331 330 327 329 329 330 330
315 312 312 316 315 315 312 313 311 311 311 311 310 309 308 309 311 311 311 310 310 311 313 318 325 327 328 330 331 332 332 332 331 332 332 331 331 331 331 330 330 330 330 330 330 329 328 329 330
314 312 312 313 313 310 308 308 307 307 307 307 306 305 305 305 306 308 310 310 309 309 311 312 312 314 319 327 329 330 331 331 331 331 331 331 330 330 330 330 331 331 331 330 330 329 329 329 328
316 313 312 314 311 313 306 305 305 304 303 303 303 302 303 303 303 304 306 307 308 309 310 311 311 313 313 314 318 328 329 329 330 331 331 331 330 329 328 328 330 331 330 327 326 328 329 328 327
314 311 312 311 310 311 310 308 305 302 304 303 302 305 303 299 302 302 305 307 309 309 310 310 311 311 312 313 314 316 321 325 327 328 328 327 327 327 327 328 329 330 329 326 327 327 328 327 324
311 312 312 310 309 311 310 309 306 304 304 305 308 306 305 304 303 304 307 308 309 308 309 309 310 311 311 311 312 312 314 315 316 318 320 321 325 326 326 325 327 328 327 327 324 326 325 324 323
312 314 318 319 318 316 303 307 307 305 301 303 303 307 305 305 304 305 307 307 307 307 307 307 308 309 310 312 313 312 313 313 314 317 319 321 323 324 324 325 327 327 325 323 321 321 320 320 320
311 313 316 318 309 306 305 307 305 303 304 305 304 306 305 305 304 306 307 307 307 306 306 306 306 306 308 310 312 312 314 314 314 315 319 322 322 322 323 323 323 322 320 318 318 318 317 315 312
312 312 307 308 302 308 305 305 304 305 305 306 306 306 306 305 305 306 307 306 306 306 305 305 305 305 305 306 307 310 311 313 314 315 316 319 319 318 317 317 316 315 314 313 311 308 306 306 306
310 309 312 309 307 308 303 304 305 305 307 307 307 306 307 306 306 306 305 305 305 305 305 304 304 304 303 303 304 305 307 309 310 310 311 311 311 311 310 309 308 306 304 304 304 303 303 302 302
311 312 310 310 308 307 303 303 300 302 303 306 306 305 306 306 306 306 305 306 305 305 304 304 304 304 303 303 303 303 303 304 306 307 307 307 306 304 303 302 302 302 302 301 301 300 300 299 299
310 311 309 309 307 307 307 307 303 300 302 303 305 304 304 305 305 304 305 306 305 304 304 304 304 304 303 303 302 302 302 302 302 302 302 302 302 301 301 301 301 301 300 300 299 299 298 298 298

GFSSGP_925_thetae_216.txt.gz
Theta_e
317 326 326 325 332 330 334 335 332 335 336 334 337 338 339 338 341 344 338 337 337 337 327 332 335 336 335 334 333 334 334 333 331 331 331 330 328 328 328 328 328 328 328 328 328 328 328 328 324
317 324 324 330 333 332 330 330 333 334 331 331 335 334 337 340 340 339 338 337 337 334 327 334 336 335 334 335 334 334 332 333 333 332 330 329 329 330 329 328 327 327 327 327 327 329 328 325 324
319 322 331 333 333 330 329 328 333 329 331 335 334 331 334 338 339 338 338 336 336 331 328 335 337 335 334 335 334 333 331 331 332 331 331 329 329 329 328 328 327 327 327 327 327 327 325 324 324
319 327 327 334 333 332 326 325 330 332 328 327 332 335 334 336 338 338 338 335 334 329 329 337 337 334 334 333 333 331 330 330 332 331 330 329 328 328 329 329 327 326 326 326 325 322 319 320 322
323 328 335 335 334 328 323 323 328 332 329 329 331 334 337 337 338 339 336 335 331 331 330 337 335 334 332 332 332 328 326 328 330 330 328 328 327 328 327 327 327 326 327 325 319 315 315 315 315
325 329 333 336 333 326 323 324 329 330 326 329 330 333 339 338 339 339 335 332 328 331 331 337 333 333 330 331 330 326 328 329 328 328 328 328 326 325 325 324 323 322 322 322 320 320 320 319 319
324 330 333 334 334 327 325 325 328 328 326 329 329 331 336 337 338 337 336 330 326 329 331 335 336 333 331 333 328 327 325 327 323 324 326 326 326 326 324 324 323 324 323 323 323 322 321 321 320
326 328 331 332 333 331 325 325 323 325 326 325 329 329 332 339 337 337 337 331 326 328 331 335 336 337 336 334 330 327 328 329 328 326 324 324 324 323 323 323 323 322 323 323 322 322 322 322 321
323 328 331 332 332 331 323 326 320 322 325 328 328 326 328 338 334 336 336 331 327 328 331 333 337 335 337 337 334 328 328 328 328 328 327 327 329 328 326 325 322 322 322 322 322 322 322 322 323
324 326 327 328 329 328 323 325 322 325 327 328 329 329 334 334 335 335 335 333 329 328 329 333 336 336 335 336 335 334 332 331 331 331 330 330 329 328 327 325 322 322 322 322 323 323 323 324 325
321 321 322 326 326 327 323 324 323 326 327 326 328 331 333 334 335 336 336 334 330 328 328 329 329 335 335 335 335 334 332 331 331 331 331 330 330 329 328 327 326 325 324 324 324 325 326 326 326
319 318 319 324 325 326 326 324 325 326 327 326 327 331 333 334 335 335 335 335 332 330 329 327 328 329 331 332 332 331 330 330 330 330 331 330 330 329 329 328 327 327 325 325 326 325 326 326 326
318 318 318 322 322 324 322 325 326 327 325 327 326 333 335 335 335 335 336 335 334 333 332 329 327 327 328 329 328 329 329 329 328 328 329 329 329 329 329 328 327 326 326 325 325 326 326 327 327
316 317 319 320 320 322 326 324 324 326 326 330 331 334 335 335 335 336 337 337 336 335 335 332 329 329 329 328 327 327 327 327 327 328 327 327 328 328 328 327 327 326 326 326 326 326 327 327 327
318 319 319 320 320 320 322 326 326 323 326 330 332 334 335 335 335 336 337 337 336 335 334 333 332 332 332 331 330 329 328 327 327 328 328 327 326 327 327 327 328 327 327 327 327 328 328 328 328
320 319 318 318 320 319 318 325 325 320 327 329 332 333 334 335 335 336 337 337 337 336 336 335 334 334 334 333 332 331 331 331 330 330 329 329 328 328 328 329 329 329 329 328 329 329 329 327 326
320 321 319 320 318 319 316 319 315 317 321 328 331 332 332 333 334 334 335 336 336 336 336 335 335 335 335 335 334 334 333 333 333 332 332 331 330 330 329 330 330 330 330 330 329 329 328 328 327
323 321 320 319 319 319 319 317 315 315 318 323 327 329 331 331 331 332 332 333 333 334 334 335 335 335 335 335 335 335 334 334 334 333 333 332 331 331 331 331 331 331 331 331 330 330 330 329 328
318 320 320 317 316 320 321 320 318 316 316 319 321 322 323 324 323 323 324 324 323 328 331 331 332 333 334 334 335 334 334 334 334 333 333 332 332 332 331 332 332 331 331 331 331 331 330 331 330
316 318 316 316 315 319 318 320 320 318 318 317 317 319 320 320 318 317 315 313 313 318 324 328 329 330 331 332 332 332 333 333 333 333 332 332 332 332 332 332 332 331 331 331 330 330 328 329 329
318 314 313 314 314 310 312 315 315 313 313 314 315 317 316 316 317 316 314 312 310 311 312 314 319 324 327 329 330 330 330 330 330 330 331 331 331 330 331 331 331 331 330 330 331 329 328 328 327
319 315 313 316 315 312 309 315 311 308 308 307 311 314 314 314 312 312 311 313 310 310 309 310 310 311 313 317 325 328 329 330 331 330 331 331 330 330 330 330 329 329 329 329 330 328 326 326 327
314 313 313 312 314 314 312 311 313 306 309 308 306 306 308 307 306 308 308 308 309 309 310 310 310 310 311 312 312 317 322 324 326 326 327 328 328 329 329 329 328 328 327 327 329 327 323 324 327
312 315 316 316 316 318 312 312 313 311 309 307 306 309 308 307 305 306 307 308 308 307 308 309 310 309 310 310 311 312 313 314 315 317 318 321 323 323 324 326 326 326 327 327 327 326 325 325 325
314 315 318 318 321 315 308 312 311 311 309 305 306 305 309 307 308 309 309 309 308 307 307 308 308 308 309 311 311 311 311 311 312 314 315 318 320 319 321 323 325 325 324 324 325 325 322 322 319
315 312 314 315 317 312 306 314 314 307 305 306 306 306 307 308 308 309 309 308 308 307 306 306 306 307 308 310 311 312 313 313 313 312 313 316 318 319 320 321 322 322 323 322 320 319 318 317 315
313 313 311 316 310 316 314 311 308 309 307 307 305 306 308 309 309 310 309 308 307 306 305 305 305 304 305 305 306 309 311 312 312 313 314 316 318 318 318 318 318 318 317 316 316 316 315 311 307
312 311 316 317 318 318 313 308 311 310 306 306 308 308 308 307 308 308 308 307 306 305 304 304 304 303 303 303 303 304 305 308 310 311 312 313 313 313 312 312 312 311 311 309 307 306 304 303 303
311 312 313 313 312 312 310 309 306 306 305 306 306 308 308 308 308 309 308 307 305 304 303 303 303 303 303 303 303 302 302 303 305 307 309 309 309 309 309 308 307 305 303 302 302 301 301 300 300
311 311 312 314 315 312 310 313 309 306 305 307 307 306 307 308 309 309 308 306 305 305 303 303 303 303 303 303 303 302 302 302 302 302 303 303 304 304 303 303 302 301 301 300 300 299 299 298 299

GFSSGP_925_thetae_219.txt.gz
Theta_e
323 331 331 329 333 333 338 338 335 336 338 337 336 338 339 340 342 352 340 339 339 335 326 335 335 336 332 333 334 334 333 333 332 331 331 330 329 329 328 329 329 329 328 328 328 326 329 327 322
320 328 328 332 333 337 334 333 335 336 336 335 337 336 338 341 341 340 340 339 339 330 328 335 334 335 332 333 334 335 333 334 332 331 330 329 329 329 329 328 328 328 328 328 328 327 328 326 323
320 324 331 333 333 334 332 331 334 334 333 338 337 334 336 341 341 339 340 338 338 327 329 336 337 336 335 334 334 334 333 332 332 331 330 328 328 328 328 326 327 327 328 327 327 327 325 323 323
320 327 329 335 330 329 330 329 334 334 334 336 336 336 336 338 339 340 338 337 335 325 330 337 336 336 334 335 334 333 331 331 332 331 329 329 329 329 329 329 326 327 327 326 326 323 319 319 320
321 328 334 335 333 332 329 325 331 334 333 333 334 336 339 337 340 340 336 335 330 326 332 337 337 335 334 334 333 331 329 331 332 330 328 328 327 328 328 328 327 326 326 323 319 316 315 315 315
324 329 335 337 334 332 329 325 329 332 332 333 333 334 341 339 340 338 334 332 327 326 335 339 336 335 333 332 332 328 326 328 329 329 328 327 326 325 326 325 326 325 323 322 321 320 320 319 319
324 331 335 334 334 333 329 326 329 330 330 332 331 333 340 339 340 336 333 329 327 328 334 338 338 335 331 331 330 326 328 328 328 328 327 327 326 326 324 323 323 324 323 323 324 323 322 322 321
326 328 333 334 335 334 328 327 328 329 328 328 329 329 334 340 338 337 330 326 326 329 331 334 335 334 333 333 330 328 326 328 325 324 325 325 325 325 324 323 323 322 323 323 322 322 322 322 321
324 330 333 334 334 333 327 327 326 326 327 327 329 327 332 339 338 339 331 326 326 328 329 333 336 334 335 334 333 329 328 329 327 328 325 325 328 328 327 326 325 322 321 322 322 322 322 322 322
323 328 331 331 332 332 328 327 325 326 326 327 329 331 338 336 337 337 336 329 326 327 329 332 335 336 337 335 334 333 331 331 330 330 330 329 329 328 328 327 324 321 321 321 321 322 322 323 326
321 326 328 328 329 329 328 328 326 325 327 325 326 331 338 336 336 337 337 332 327 326 328 330 333 334 335 335 334 332 332 331 330 330 330 329 329 329 329 328 328 325 326 325 325 326 326 327 327
319 320 320 325 328 329 327 326 326 326 329 327 326 329 335 335 336 337 338 335 330 328 327 329 330 332 333 334 333 333 331 330 330 330 330 330 330 329 329 328 328 327 327 326 326 326 327 327 327
318 319 318 322 325 327 326 327 327 326 327 328 328 332 335 337 336 337 338 337 333 331 329 328 328 328 330 333 330 330 330 330 329 329 330 330 329 329 329 329 328 328 327 327 327 327 327 328 328
319 318 319 322 324 324 326 327 326 327 327 329 330 333 335 336 337 337 338 338 336 334 333 331 328 327 328 328 329 329 330 329 329 329 329 329 329 329 329 329 329 329 328 328 327 328 328 329 329
319 319 319 321 322 322 324 328 327 328 327 330 332 333 334 334 335 337 338 338 337 337 337 335 332 328 328 329 329 329 329 329 329 329 329 329 328 329 329 329 329 329 329 329 329 329 330 329 329
320 319 320 318 321 321 322 326 327 325 328 329 332 333 335 334 333 336 337 338 338 338 337 335 333 331 331 333 333 332 331 331 331 330 330 330 329 329 329 330 330 330 330 330 330 330 330 330 329
321 321 318 320 320 320 320 322 324 323 326 329 330 332 334 334 334 334 335 337 337 337 336 336 335 334 335 335 335 334 334 333 333 333 332 332 331 330 330 330 331 331 331 331 330 329 329 329 329
322 321 320 318 320 320 319 319 318 317 323 327 329 331 332 333 333 333 335 335 335 335 336 336 336 336 336 336 336 336 336 335 335 335 334 334 333 332 332 331 332 332 332 331 330 329 329 329 329
317 321 320 319 318 321 319 318 317 318 317 324 327 329 331 332 331 331 333 334 335 335 335 336 336 336 337 337 336 335 335 335 335 335 335 335 334 333 332 332 333 332 332 332 330 330 329 329 329
316 317 319 317 316 320 321 322 320 320 319 319 322 325 326 326 325 325 327 328 328 329 331 333 333 334 334 335 336 335 335 335 335 335 335 335 334 334 333 333 333 333 332 331 330 329 329 330 327
317 317 314 316 316 315 316 319 320 320 319 319 319 319 320 321 322 322 320 319 317 317 320 325 329 331 331 332 333 333 333 333 332 333 333 333 333 333 333 333 333 333 332 331 330 329 329 329 327
318 315 316 315 315 314 312 317 317 317 315 315 317 318 318 318 317 317 317 317 314 314 314 314 314 316 321 325 329 331 332 332 332 332 332 332 332 331 332 332 332 332 331 330 329 329 330 327 327
317 314 314 315 316 314 313 311 313 309 311 311 310 310 310 310 310 312 314 313 315 312 313 313 313 313 312 313 315 321 326 327 327 328 329 329 330 331 331 331 331 331 330 329 328 328 329 326 325
314 314 314 316 316 319 315 313 314 314 309 308 307 309 310 309 308 307 308 309 311 311 312 313 313 312 310 312 313 314 315 316 316 317 319 320 323 326 326 327 329 328 327 326 325 327 327 325 325
315 314 321 322 321 320 310 313 314 313 311 310 309 308 308 310 309 310 310 310 310 310 310 311 311 310 311 311 311 311 312 313 314 315 315 317 319 321 322 322 325 323 324 323 323 324 324 323 322
313 314 319 324 321 317 309 314 314 311 309 306 307 307 307 310 310 311 311 311 310 309 309 309 309 309 309 310 311 311 312 313 313 313 314 316 319 319 317 319 319 320 320 322 322 322 321 319 318
314 313 314 317 314 318 315 313 312 312 308 308 308 308 309 310 310 311 311 310 309 309 308 308 307 307 306 306 308 309 311 311 311 312 313 313 313 315 314 315 316 318 318 318 316 316 315 314 314
313 312 315 315 320 318 315 314 314 311 308 309 309 309 309 309 309 310 310 309 308 307 306 305 305 305 304 304 304 304 305 307 309 311 312 312 313 313 313 314 314 314 313 312 311 310 308 307 305
313 314 313 315 315 316 315 312 309 308 308 309 310 308 309 309 309 310 310 309 308 306 305 305 304 304 304 303 303 303 303 303 304 307 308 309 310 309 309 309 308 307 306 305 304 303 303 303 302
311 312 313 314 317 314 313 313 310 308 308 309 309 308 308 309 310 310 310 309 307 306 305 305 304 304 304 303 303 303 303 302 302 302 303 304 304 305 305 304 303 302 301 301 300 299 300 301 301

GFSSGP_925_thetae_222.txt.gz
Theta_e
320 328 336 332 334 333 337 336 335 338 337 336 335 337 338 343 345 350 340 339 338 330 323 332 336 333 333 336 335 335 336 335 334 331 330 329 329 329 329 329 329 328 328 327 326 328 328 326 324
317 325 330 332 336 336 335 333 335 334 335 335 335 336 338 345 341 340 340 339 335 327 330 333 335 332 333 333 334 334 331 330 331 330 329 328 328 329 327 328 328 328 327 327 326 327 327 324 322
319 323 329 335 335 335 336 332 333 334 333 336 336 334 337 344 340 340 340 338 329 328 334 335 335 333 332 333 334 332 329 330 331 330 329 329 327 326 327 327 327 328 328 327 327 326 323 322 322
320 325 327 333 336 330 330 329 333 333 335 335 334 336 338 339 339 340 339 337 327 328 335 333 335 334 333 333 334 332 328 329 331 329 329 327 328 327 328 327 327 327 327 326 325 320 317 317 317
320 323 332 334 333 331 329 325 333 334 334 336 335 337 340 339 340 339 338 335 326 330 337 335 335 334 334 333 333 331 327 327 328 328 328 328 328 328 328 327 325 324 324 322 318 316 316 316 316
322 326 333 336 334 331 329 325 326 331 331 332 334 335 342 339 340 337 337 332 325 335 337 335 335 334 334 334 332 330 326 328 329 328 327 326 325 327 327 327 326 326 323 320 320 320 320 320 319
322 326 332 333 333 333 330 325 326 328 330 332 331 333 342 339 338 335 335 328 325 336 337 336 335 334 333 332 331 328 326 327 328 328 327 327 325 323 323 322 322 322 323 322 323 322 322 321 321
322 325 329 331 334 335 332 325 326 327 329 329 329 331 342 339 338 334 331 327 326 334 336 337 335 334 332 331 330 325 328 327 325 326 327 326 325 324 323 322 321 321 322 323 322 322 321 321 320
323 328 330 330 333 333 325 327 326 324 326 327 329 330 339 338 338 333 329 327 328 330 337 335 333 334 331 330 330 328 326 328 325 325 323 323 323 326 325 324 324 325 321 320 321 321 320 320 321
323 328 330 328 330 331 326 326 325 325 325 326 329 339 338 338 338 332 327 325 329 328 332 333 332 332 332 332 331 329 327 328 327 327 328 325 328 329 328 327 326 323 320 319 319 320 321 322 325
323 323 325 327 329 329 328 326 324 324 325 324 327 339 336 337 337 337 329 325 327 328 330 334 335 336 334 332 331 331 330 329 330 329 330 330 329 329 328 327 325 326 323 325 323 325 326 326 327
325 325 321 323 328 329 329 327 325 324 327 325 323 336 334 336 336 337 335 327 326 327 329 332 332 333 336 335 332 331 330 332 330 330 330 330 329 329 329 329 328 327 327 326 326 326 326 326 326
320 322 319 320 326 326 325 327 326 325 327 326 329 334 334 334 336 336 338 332 327 326 328 329 331 333 331 335 333 332 331 331 330 329 330 330 330 329 329 328 328 328 327 327 327 327 327 327 327
321 321 321 319 324 325 326 327 326 325 325 327 331 333 334 335 335 336 338 336 331 328 327 328 329 330 330 328 331 331 331 330 330 329 329 330 330 329 329 329 329 329 328 328 327 327 327 328 328
320 323 321 318 321 324 325 328 326 324 325 328 329 331 333 335 336 336 338 338 334 332 330 329 328 328 328 329 328 329 329 330 329 329 328 328 329 329 329 329 329 329 329 328 328 328 329 329 328
321 320 325 321 319 321 323 327 326 325 326 327 329 330 332 332 336 337 338 338 337 336 335 332 330 328 327 328 328 329 329 329 328 328 329 329 329 328 328 328 329 329 330 329 329 329 329 328 328
322 324 320 322 320 321 320 322 325 323 326 326 328 330 332 331 332 336 337 338 338 337 337 336 334 331 328 329 331 331 331 331 331 331 330 330 330 329 329 329 329 330 330 331 330 329 328 328 327
322 324 322 321 319 320 319 319 317 320 323 325 326 329 331 331 331 334 336 337 338 338 337 336 335 333 332 333 334 335 334 334 333 333 333 332 332 331 330 330 330 331 331 331 330 329 328 327 327
319 321 323 321 317 320 319 318 316 315 318 322 325 328 330 331 330 333 334 335 336 336 335 336 336 336 336 335 336 335 334 334 334 334 335 335 334 333 333 332 331 331 331 331 330 329 328 327 327
318 320 321 318 316 320 319 320 319 318 316 316 321 325 329 330 329 330 333 334 335 335 335 335 336 336 336 337 337 335 334 334 334 335 335 335 335 334 334 333 332 332 331 331 330 329 328 327 328
318 319 318 316 315 315 315 318 318 318 319 317 318 317 317 322 324 323 324 328 329 329 328 331 333 333 334 335 336 336 335 334 334 334 334 335 335 334 334 333 333 333 332 330 330 328 327 325 326
321 315 315 316 317 315 311 315 315 316 317 317 317 316 316 317 317 316 318 319 318 317 317 321 326 330 330 331 332 333 333 332 332 332 332 333 332 332 332 332 332 332 332 331 329 328 327 327 328
318 316 316 316 316 313 312 310 312 309 310 307 307 309 308 307 307 305 310 314 314 314 314 313 314 317 321 326 328 329 330 330 329 329 329 330 330 329 330 331 331 330 329 329 328 326 326 328 326
314 315 316 316 317 319 314 313 313 310 308 307 306 306 308 308 307 306 308 309 312 312 313 313 313 312 311 312 313 315 317 318 318 317 317 318 320 324 327 327 327 328 328 327 326 325 326 326 325
315 315 322 322 321 322 310 312 312 310 307 306 306 306 306 308 309 309 309 309 310 310 311 312 312 311 311 312 311 311 312 312 313 314 314 316 318 320 322 321 322 323 324 323 323 323 322 323 323
315 315 319 325 323 318 309 313 314 309 306 306 306 306 306 309 309 310 310 310 310 309 309 309 310 309 310 311 311 311 312 313 313 313 313 315 318 319 319 318 320 318 319 320 321 321 321 321 319
313 315 315 317 313 316 314 312 311 307 307 307 307 307 307 309 309 310 310 310 309 309 308 308 308 308 308 309 310 310 311 312 312 313 313 314 314 315 315 315 316 317 317 316 316 316 315 314 314
313 311 314 314 315 318 313 313 313 308 307 308 308 307 308 308 308 309 309 309 308 307 307 306 306 306 305 305 305 305 306 308 310 311 312 312 312 312 312 312 312 312 311 310 310 310 309 308 307
312 313 313 314 315 318 314 308 307 306 308 308 307 307 307 308 308 308 309 309 308 306 305 305 305 304 304 304 303 303 303 304 305 307 308 309 309 309 309 308 308 307 306 305 305 304 304 304 302
312 312 313 314 315 313 313 312 307 307 307 308 307 307 307 307 308 308 309 308 307 306 305 305 304 304 304 304 303 303 303 302 303 303 303 304 305 305 305 304 304 302 302 301 301 300 301 301 301